COSMOS 1275 DEB, 12743

Orbit data source: Space-Track

COSMOS 1275 DEB, 12743 is space debris in LEO originally from a launch on Thu, 04 Jun 1981 UTC launched from the Plesetsk Missile And Space Complex (PKMTR). Debris objects in space refer to the collection of defunct objects orbiting the Earth. Examples of debris include non-operational satellites, rocket bodies, and fragments generated from explosions, collisions, or faulty payload assembly.

Loading next visibility...
Identifier
12743, 1981-053CL
Orbit
LEO
Country
Flag of CISCIS
Related business
Manufacturer
Unknown
Mission
Spacecraft
Bus & Motor
Unknown
Mass
Unknown
Launch date (UTC)
1981-06-04 (45 years ago)
Launch vehicle
Unknown
Launch site
Plesetsk Missile And Space Complex (PKMTR)
Object type
Payload
Rocket body
Debris
Shape & HBR
Unknown shape, 0.2 m
Radar Cross Section
Medium (>0.1 m² and <1 m²)

Expand to show TLE details & history
Last TLE update: 17 hours ago

TLE from 17 hours ago
0 COSMOS 1275 DEB
1 12743U 81053CL  25341.32029980  .00000904  00000-0  84061-3 0  9997
2 12743  82.9239 355.9753 0063809 359.1922  26.0550 13.80219340224801
Epoch: 2025-12-07T07:41Z
TLE epoch observation values (Epoch: 2025-12-07T07:41:13.902Z)
Latitude
25.39224°
Longitude
167.69223°
Altitude
924.152 km
Speed
7.413 km/s
True Right ascension
23h 57m 20s
True Declination
25° 15' 44"
Sunlit
Object was in daylight at epoch
Visualization orbit readout
Latitude
Unknown
Longitude
Unknown
Altitude
Unknown
Speed
Unknown
Apparent Right ascension
Unknown
Apparent Declination
Unknown
Sunlit
N/A
Visualization observer readout
Local Sidereal Time
22:28:10
Azimuth
Unknown
Elevation
Unknown
Doppler factor
Unknown
Orbital elements
Apogee altitude
1,007.077 km
Perigee altitude
913.425 km
Semi-major axis
7,338.388 km
Eccentricity
0.00638
Inclination
82.9239°
RAAN
355.9753°
Arg. of periapsis
359.1922°
True anomaly
26.37848°
Mean anomaly
26.055°
Eccentric anomaly
26.21651°
Mean motion
3.45257 °/min
Orbital period
104.27 mins
BSTAR
0.00084061
Loading maneuver chart data...
Computing Atmospheric mass density...
Loading historical data...
Loading historical data...
Loading historical data...
Loading historical data...
Loading historical data...
Loading historical data...
Loading historical data...

Documentation

Showing up to 5 results
|